Grand Forks, ND

8:01 AM CDT on July 26, 2017 (GMT -0500)
Grand Forks International

Weather History for KGFK - September, 2014

Change the Weather History Date:

Friday, September 26, 2014

  Actual Average Record
Temperature  
Mean Temperature 73 °F 52 °F  
Max Temperature 85 °F 65 °F 92 °F (1974)
Min Temperature 61 °F 40 °F 20 °F (1942)
Degree Days  
Heating Degree Days 0 13  
Month to date heating degree days 157 212  
Since 1 July heating degree days 211 294  
Cooling Degree Days 8 0  
Month to date cooling degree days 25 24  
Year to date cooling degree days 386 376  
Growing Degree Days 23 (Base 50)    
Moisture  
Dew Point 60 °F    
Average Humidity 68    
Maximum Humidity 93    
Minimum Humidity 43    
Precipitation  
Precipitation 0.00 in 0.06 in 1.73 in (1964)
Month to date precipitation 1.04 1.79  
Year to date precipitation 21.72 17.02  
Snow  
Snow 0.00 in 0.00 in T in (1972)
Month to date snowfall 0.0 0.0  
Since 1 July snowfall 0.0 0.0  
Since 1 September snowfall 0.0 0.0  
Snow Depth 0.00 in    
Sea Level Pressure  
Sea Level Pressure 29.97 in    
Wind  
Wind Speed 14 mph (SSE)    
Max Wind Speed 25 mph    
Max Gust Speed 33 mph    
Visibility 10 miles    
Events      
T = Trace of Precipitation, MM = Missing Value Source: NWS Daily Summary

Daily Weather History Graph

Daily Weather History Graph

Search for Another Location

Airport or City:

Trip Planner

Search our weather history database for the weather conditions in past years. The results will help you decide how hot, cold, wet, or windy it might be!

Date:

Astronomy

Sep. 26, 2014 Rise Set
Actual Time 7:20 AM CDT 7:18 PM CDT
Civil Twilight 6:50 AM CDT 7:48 PM CDT
Nautical Twilight 6:13 AM CDT 8:25 PM CDT
Astronomical Twilight 5:36 AM CDT 9:02 PM CDT
Moon 9:49 AM CDT 8:26 PM CDT
Length of Visible Light 12h 58m
Length of Day
11h 57m
Waxing Crescent, 6% of the Moon is Illuminated
Sep 26
Waxing Crescent
Oct 1
First Quarter
Oct 8
Full
Oct 15
Last Quarter
Oct 23
New

Hourly Weather History & Observations

Time (CDT) Temp. Heat Index Dew Point Humidity Pressure Visibility Wind Dir Wind Speed Gust Speed Precip Events Conditions
12:53 AM 66.0 °F - 62.1 °F 87% 30.01 in 10.0 mi SSE 6.9 mph - N/A   Clear
1:53 AM 64.0 °F - 61.0 °F 90% 30.01 in 10.0 mi SSE 6.9 mph - N/A   Clear
2:53 AM 64.0 °F - 61.0 °F 90% 30.00 in 10.0 mi South 9.2 mph - N/A   Clear
3:53 AM 64.0 °F - 61.0 °F 90% 30.00 in 10.0 mi South 8.1 mph - N/A   Clear
4:53 AM 63.0 °F - 60.1 °F 90% 30.00 in 10.0 mi SSE 8.1 mph - N/A   Clear
5:53 AM 62.1 °F - 59.0 °F 90% 30.01 in 10.0 mi SSE 8.1 mph - N/A   Clear
6:53 AM 62.1 °F - 59.0 °F 90% 30.00 in 10.0 mi SSE 9.2 mph - N/A   Clear
7:53 AM 62.1 °F - 59.0 °F 90% 30.00 in 9.0 mi SSE 11.5 mph - N/A   Clear
8:53 AM 64.0 °F - 60.1 °F 87% 30.00 in 10.0 mi SSE 13.8 mph - N/A   Clear
9:53 AM 69.1 °F - 61.0 °F 75% 30.01 in 10.0 mi SSE 15.0 mph 21.9 mph N/A   Clear
10:53 AM 73.9 °F - 62.1 °F 66% 30.00 in 10.0 mi South 16.1 mph - N/A   Clear
11:53 AM 79.0 °F - 63.0 °F 58% 29.99 in 10.0 mi SSE 17.3 mph 26.5 mph N/A   Clear
12:53 PM 82.9 °F 83.7 °F 62.1 °F 49% 29.99 in 10.0 mi South 23.0 mph 31.1 mph N/A   Clear
1:53 PM 84.0 °F 84.4 °F 61.0 °F 46% 29.97 in 10.0 mi South 21.9 mph 32.2 mph N/A   Clear
2:53 PM 84.0 °F 84.0 °F 60.1 °F 44% 29.95 in 10.0 mi SSE 21.9 mph 32.2 mph N/A   Clear
3:53 PM 84.0 °F 84.0 °F 60.1 °F 44% 29.94 in 10.0 mi South 17.3 mph 29.9 mph N/A   Clear
4:53 PM 84.0 °F 83.8 °F 59.0 °F 43% 29.93 in 10.0 mi SSE 21.9 mph 27.6 mph N/A   Clear
5:53 PM 82.0 °F 81.7 °F 57.0 °F 42% 29.93 in 10.0 mi South 18.4 mph 26.5 mph N/A   Clear
6:53 PM 79.0 °F - 55.0 °F 44% 29.93 in 10.0 mi SSE 13.8 mph 24.2 mph N/A   Clear
7:53 PM 75.0 °F - 57.9 °F 55% 29.94 in 10.0 mi SSE 13.8 mph - N/A   Clear
8:53 PM 71.1 °F - 57.9 °F 63% 29.94 in 10.0 mi SSE 11.5 mph - N/A   Clear
9:53 PM 70.0 °F - 57.9 °F 65% 29.94 in 10.0 mi SSE 15.0 mph - N/A   Clear
10:53 PM 68.0 °F - 57.9 °F 70% 29.95 in 10.0 mi SSE 11.5 mph - N/A   Clear
11:53 PM 66.0 °F - 57.9 °F 75% 29.94 in 10.0 mi SSE 13.8 mph - N/A   Clear